Regional Weather Roundup
Issued by NWS Northern Indiana

Home | Current Version | Previous Version | Text Only | Print | Product List | Glossary Off
Versions: 1 2 3 4 5 6 7 8 9 10 11 12 13 14 15 16 17 18 19 20 21 22 23 24 25 26 27 28 29 30 31 32 33 34 35 36 37 38 39 40 41 42 43 44 45 46 47 48 49 50

000
ASUS43 KIWX 260600
RWRIWX

KIWX WEATHER ROUNDUP
NATIONAL WEATHER SERVICE NORTHERN INDIANA
200 AM EDT THU MAY 26 2016

NOTE: "FAIR" INDICATES FEW OR NO CLOUDS BELOW 12,000 FEET WITH NO
SIGNIFICANT WEATHER AND/OR OBSTRUCTIONS TO VISIBILITY.

* THESE STATIONS ARE NOT UNDER NWS QUALITY CONTROL. THEY ALSO MAY NOT
  REPORT WEATHER SUCH AS PRECIPITATION OR FOG.

INZ001>027-260700-
NORTHERN INDIANA

CITY           SKY/WX    TMP DP  RH WIND       PRES   REMARKS
SOUTH BEND     CLOUDY    65  63  93 E6        30.00F
6HR MIN TEMP:  65; 6HR MAX TEMP:  81;

GOSHEN         CLOUDY    71  61  70 W6        29.99S
6HR MIN TEMP:  71; 6HR MAX TEMP:  82; 6HR PCP: TRACE;

ANGOLA*        MOCLDY    72  63  73 SW6       30.00R
FORT WAYNE     CLOUDY    70  62  76 S6        30.01S
6HR MIN TEMP:  70; 6HR MAX TEMP:  82;


$$
INZ028>050-260700-
CENTRAL INDIANA

CITY           SKY/WX    TMP DP  RH WIND       PRES   REMARKS
LAFAYETTE      CLOUDY    69  63  81 S6        29.98F
6HR MIN TEMP:  69; 6HR MAX TEMP:  77;

KOKOMO*        CLOUDY    70  61  73 SW7       30.00F
6HR MIN TEMP:  70; 6HR MAX TEMP:  81;

MUNCIE*        CLOUDY    72  62  71 SW7       30.02S
6HR MIN TEMP:  72; 6HR MAX TEMP:  83;

INDIANAPOLIS   CLOUDY    69  62  78 S9        30.01S
6HR MIN TEMP:  69; 6HR MAX TEMP:  77;


$$
MIZ043>046-050>051-056>058-064>065-071>073-077>080-260700-
SOUTHWEST LOWER MICHIGAN

CITY           SKY/WX    TMP DP  RH WIND       PRES   REMARKS
BATTLE CREEK   LGT RAIN  65  63  93 W14       30.02S
6HR MIN TEMP:  65; 6HR MAX TEMP:  78; 6HR PCP:  0.65;

BENTON HARBOR  CLOUDY    65  62  90 SE12      29.95F
6HR MIN TEMP:  63; 6HR MAX TEMP:  82; 6HR PCP:  0.59;

COLDWATER*     CLOUDY    68  63  83 NW5       30.01S
6HR MIN TEMP:  68; 6HR MAX TEMP:  80;

HILLSDALE*     MOCLDY    69  63  79 S6        30.00S
HOLLAND        CLOUDY    65  63  93 S9        29.95F
6HR MIN TEMP:  64; 6HR MAX TEMP:  82; 6HR PCP:  0.27;

GRAND RAPIDS   LGT RAIN  66  63  90 SE7       29.96F
6HR MIN TEMP:  66; 6HR MAX TEMP:  81; 6HR PCP:  0.33;

KALAMAZOO      TSTM      65  61  87 NW9       30.02R FOG
6HR MIN TEMP:  65; 6HR MAX TEMP:  81; 6HR PCP:  0.42;

STURGIS*       CLOUDY    66  63  87 N5        30.00S
6HR MIN TEMP:  66; 6HR MAX TEMP:  80;

THREE RIVERS*  CLOUDY    66  64  91 N5        30.02R

$$
OHZ001>008-015>018-024>025-260700-
NORTHWEST OHIO

CITY           SKY/WX    TMP DP  RH WIND       PRES   REMARKS
DEFIANCE       CLOUDY    73  61  65 SW8       30.00S
6HR MIN TEMP:  71; 6HR MAX TEMP:  83;

FINDLAY        CLOUDY    68  59  73 S7        30.01R
6HR MIN TEMP:  68; 6HR MAX TEMP:  80;

TOLEDO EXPRESS CLOUDY    70  61  73 S6        30.00R
6HR MIN TEMP:  70; 6HR MAX TEMP:  78;

TOLEDO METCALF CLOUDY    71  59  65 S9        30.01R
6HR MIN TEMP:  71; 6HR MAX TEMP:  79;

LIMA           CLOUDY    70  62  76 S8        30.03R
6HR MIN TEMP:  68; 6HR MAX TEMP:  79;


$$
AND FOR LAKE MICHIGAN COASTAL AND OPEN LAKE BUOY OBSERVATIONS

STATION/POSITION TEMP    WIND        PRES    VSBY  WAVE
                 AIR SEA DIR/SP/G                  HT/PER
                 (F)     (DEG/KT/KT) (MB)    (MI)  (FT/S)
CALUMET HARBOR    63      80/  9/ 14 1014.1F
MICHIGAN CITY     64      70/  9/ 11   N/A
BURNS HARBOR      66     100/  6/  9 1015.2F
SAINT JOSEPH      65      30/  4/  6 1016.6R
SOUTH LAKE BUOY   55 49  140/ 14/ 16 1012.9          1/ 3
4 MI NW BRIDGMAN  62 59   60/  6/  8   N/A           2/ 3
MICHIGAN CITY     61 59   90/  8/ 12   N/A           1/ 3

$$
&&




USA.gov is the U.S. government's official web portal to all federal, state and local government web resources and services.